This is the latest recevied weather packets stored in our database for station/object CYQK. If no packets are shown the sender has not sent any weather packets the latest 10 day(s).
| Time | Temp. | Humidity | Pressure | Rain* | Wind** | Luminosity | Snow |
|---|---|---|---|---|---|---|---|
| 1777870998 | 12.78° C | 47% | 988.5 hPa | - | - | - | - |
| 1777870398 | 12.78° C | 47% | 988.5 hPa | - | - | - | - |
| 1777869795 | 12.78° C | 47% | 988.5 hPa | - | - | - | - |
| 1777869197 | 12.78° C | 47% | 988.5 hPa | - | - | - | - |
| 1777868597 | 12.78° C | 47% | 987.8 hPa | - | - | - | - |
| 1777867998 | 12.78° C | 50% | 987.8 hPa | - | - | - | - |
| 1777867526 | 12.78° C | 54% | 990.5 hPa | - | - | - | - |
| 1777866799 | 12.78° C | 54% | 990.5 hPa | - | - | - | - |
| 1777866202 | 12.78° C | 54% | 990.5 hPa | - | - | - | - |
| 1777865601 | 11.67° C | 62% | 990.5 hPa | - | - | - | - |
| 1777865005 | 11.67° C | 62% | 990.5 hPa | - | - | - | - |
| 1777864401 | 11.67° C | 62% | 990.5 hPa | - | - | - | - |
| 1777863803 | 10.56° C | 71% | 992.2 hPa | - | - | - | - |
| 1777863205 | 10.56° C | 71% | 992.2 hPa | - | - | - | - |
| 1777862600 | 10.56° C | 71% | 992.2 hPa | - | - | - | - |
| 1777862008 | 10.56° C | 71% | 992.2 hPa | - | - | - | - |
| 1777861405 | 10.56° C | 71% | 992.2 hPa | - | - | - | - |
| 1777860801 | 10.56° C | 71% | 992.2 hPa | - | - | - | - |
| 1777860208 | 12.78° C | 58% | 993.9 hPa | - | - | - | - |
| 1777859604 | 12.78° C | 58% | 993.9 hPa | - | - | - | - |
| 1777859004 | 12.78° C | 58% | 993.9 hPa | - | - | - | - |
| 1777858411 | 12.78° C | 58% | 993.9 hPa | - | - | - | - |
| 1777857808 | 12.78° C | 58% | 993.9 hPa | - | - | - | - |
| 1777857208 | 12.78° C | 58% | 993.9 hPa | - | - | - | - |
| 1777856608 | 11.67° C | 62% | 994.2 hPa | - | - | - | - |
* Rain since midnight (hover to see other rain measurements)
** Current wind speed in m/s (hover to see current wind gust speed)